This is the latest recevied weather packets stored in our database for station/object KD0KHX-10. If no packets are shown the sender has not sent any weather packets the latest 10 day(s).
| Time | Temp. | Humidity | Pressure | Rain* | Wind** | Luminosity | Snow |
|---|---|---|---|---|---|---|---|
| 1777869003 | 11.67° C | 49% | 1002.2 hPa | 0 mm | - | - | - |
| 1777868973 | 11.67° C | 49% | 1002.2 hPa | 0 mm | - | - | - |
| 1777868403 | 12.22° C | 49% | 1002.3 hPa | 0 mm | - | - | - |
| 1777868103 | 12.22° C | 48% | 1002.3 hPa | 0 mm | - | - | - |
| 1777867803 | 12.22° C | 49% | 1002.4 hPa | 0 mm | - | - | - |
| 1777867503 | 12.22° C | 48% | 1002.3 hPa | 0 mm | - | - | - |
| 1777866903 | 13.33° C | 45% | 1002.4 hPa | 0 mm | - | - | - |
| 1777865838 | 14.44° C | 43% | 1002.4 hPa | 0 mm | - | - | - |
| 1777865537 | 15° C | 42% | 1002.4 hPa | 0 mm | - | - | - |
| 1777863137 | 15.56° C | 37% | 1002.1 hPa | 0 mm | - | - | - |
| 1777846638 | 27.22° C | 18% | 1002.7 hPa | 0 mm | - | - | - |
| 1777846337 | 26.67° C | 18% | 1002.8 hPa | 0 mm | - | - | - |
| 1777845438 | 26.67° C | 18% | 1003.1 hPa | 0 mm | - | - | - |
| 1777839437 | 25.56° C | 22% | 1004.7 hPa | 0 mm | - | - | - |
| 1777836138 | 25° C | 22% | 1005 hPa | 0 mm | - | - | - |
| 1777835103 | 24.44° C | 22% | 1005.2 hPa | 0 mm | - | - | - |
| 1777834172 | 25° C | 22% | 1005.5 hPa | 0 mm | - | - | - |
| 1777831937 | 25° C | 22% | 1006.2 hPa | 0 mm | - | - | - |
| 1777831172 | 24.44° C | 22% | 1006.6 hPa | 0 mm | - | - | - |
| 1777828038 | 23.33° C | 24% | 1007.4 hPa | 0 mm | - | - | - |
| 1777825937 | 23.33° C | 25% | 1007.6 hPa | 0 mm | - | - | - |
| 1777825773 | 23.33° C | 25% | 1007.6 hPa | 0 mm | - | - | - |
| 1777824737 | 21.67° C | 27% | 1007.8 hPa | 0 mm | - | - | - |
| 1777822173 | 20° C | 34% | 1007.9 hPa | 0 mm | - | - | - |
| 1777820538 | 18.89° C | 35% | 1008 hPa | 0 mm | - | - | - |
* Rain latest hour (hover to see other rain measurements)
** Current wind speed in m/s (hover to see current wind gust speed)